Location: Hawks Ness
(60.2333°N, 1.1667°W)
Time: 22:29:11
(UTC+00:00)

NOSS 3-4 (C) - Pass Details

Date: 22 October 2019
Orbit: 908 x 1304 km, 63.4° (Epoch: 10 November)

Event Time Altitude Azimuth Distance (km) Brightness Sun altitude
Exits shadow 05:30:28 - 235° (SW) 2,817 5.4 -11.8°
Reaches altitude 10° 05:30:55 10° 234° (SW) 2,650 5.3 -11.8°
Maximum altitude 05:37:05 82° 148° (SSE) 1,004 3.6 -11.0°
Drops below altitude 10° 05:43:50 10° 63° (ENE) 2,885 7.0 -10.2°
Sets 05:46:36 0° 63° (ENE) 3,902 7.7 -9.8°
